User: anonymous   Login
Location: Unspecified
(0.0000°N, 0.0000°E)
Time: 09:18:27
(UTC+00:00)
Language:

Astrid - Orbit

View from above orbital plane
View from above orbital plane
View from above satellite
View from above satellite

Ground track
Ground track

The orbit data is extracted from the following two-line orbital elements,

1 23464U 95002B   19049.90702785  .00000028  00000-0  13957-4 0  9995
2 23464  82.9284 197.0916 0041054  22.5326 337.7619 13.72565908205471
Epoch (UTC): 18 February 2019 21:46:07
Eccentricity: 0.0041054
inclination: 82.9284°
perigee height: 960 km
apogee height: 1020 km
right ascension of ascending node: 197.0916°
argument of perigee: 22.5326°
revolutions per day: 13.72565908
mean anomaly at epoch: 337.7619°
orbit number at epoch: 20547

The dashed part of the orbit path shows where the satellite is in the earth's shadow,  

DLR